Regional Weather Roundup
Issued by NWS

Home | Current Version | Previous Version | Graphics & Text | Print | Product List | Glossary On
Versions: 1 2 3 4 5 6 7 8 9 10 11 12 13 14 15 16 17 18 19 20 21 22 23 24 25 26 27 28 29 30 31 32 33 34 35 36 37 38 39 40 41 42 43 44 45 46 47 48 49 50
000
ASUS43 KFSD 311010
RWRSD

WEATHER ROUNDUP FOR SOUTH DAKOTA
NATIONAL WEATHER SERVICE SIOUX FALLS SD
500 AM CDT WED AUG 31 2016

NOTE: "FAIR" INDICATES FEW OR NO CLOUDS BELOW 12,000 FEET WITH NO
SIGNIFICANT WEATHER AND/OR OBSTRUCTIONS TO VISIBILITY.


SDZ001>005-009-010-012>017-311100-
NORTHWEST AND NORTH CENTRAL SOUTH DAKOTA

CITY           SKY/WX    TMP DP  RH WIND       PRES   REMARKS
BUFFALO          N/A     62  59  90 S10       30.07S
FAITH            N/A     62  60  93 S14       30.14S
MOBRIDGE       CLEAR     69  61  75 SE14      30.13F
$$

SDZ012>016-024>037-041>051-057-063-072>074-311100-
SOUTHWEST AND SOUTH CENTRAL SOUTH DAKOTA

CITY           SKY/WX    TMP DP  RH WIND       PRES   REMARKS
RAPID CTY ARPT CLEAR     58  53  84 SE3       30.17F
PIERRE         CLEAR     66  63  90 SE9       30.15S
CUSTER         CLEAR     57  51  80 CALM      30.32F
ELLSWORTH AFB  CLEAR     64  56  74 S7        30.16F
PHILIP         CLEAR     66  60  81 S10       30.15F
PINE RIDGE     CLEAR     60  60 100 S9        30.22F
WINNER         FAIR      68  64  87 S7        30.19F
$$

SDZ004>011-016>023-039-040-311100-
NORTHEAST SOUTH DAKOTA

CITY           SKY/WX    TMP DP  RH WIND       PRES   REMARKS
ABERDEEN       CLOUDY    61  57  87 SE3       30.20F
WATERTOWN      CLEAR     58  54  86 CALM      30.23R
BROOKINGS      CLEAR     55  54  96 CALM      30.23R
SISSETON         N/A     53  51  93 CALM      30.21S
$$

SDZ017-020-022-023-036>040-048>070-311100-
SOUTHEAST SOUTH DAKOTA

CITY           SKY/WX    TMP DP  RH WIND       PRES   REMARKS
SIOUX FALLS    PTCLDY    58  56  93 NE3       30.21F
HURON          HVY RAIN  65  61  87 S5        30.21R FOG
CHAMBERLAIN    CLEAR     66  66 100 SE5       30.19S
MITCHELL       MOCLDY    64  63  96 SE5       30.21R
YANKTON          N/A     63  61  94 NE3       30.19S VSB 1/4
$$

ABBREVIATIONS USED IN REMARKS
   TC - TEMPERATURE IN CELSIUS
  WCI - WIND CHILL INDEX
   HX - HEAT INDEX
  VSB - VISIBILITY





USA.gov is the U.S. government's official web portal to all federal, state and local government web resources and services.